Weather in Koltubanovsky

Russia / Orenburg Oblast     52°56′19″N   52°01′54″E
temp.,
°C
wind,
m/s
gust,
m/s
humid.,
%
clouds,
%
prec.,
mm/h
press.,
hPa
HPBL,
m
1 march, mon
mon123:00−13nnw379497 0.6 1012310
02:00−14nnw369595 0.1 1014239
05:00−18nw239676 0.2 101556
08:00−20nw239831 0.0 101847
11:00−16nw359432 0.0 1019251
14:00−14nw349075 0.0 1020374
17:00−14nw469183 0.0 1021427
20:00−19wnw239764 0.0 102230
2 march, tue
tue223:00−21w229832 0.0 102220
02:00−21wsw2210050 0.0 102120
05:00−19ssw239968 0.0 101966
08:00−14ssw4995100 0.0 1016319
11:00−10sw51194100 0.4 1013484
14:00−7sw61294100 1.1 1009658
17:00−3sw61295100 2.2 1006773
20:00−2sw61396100 1.4 1004767
3 march, wed
wed323:00−1wsw61296100 3.0 1002753
02:00−1w4897100 1.2 1001437
05:00−2wnw369798 1.3 1002264
08:00−8wnw239798 0.1 100233
11:00−5wnw249591 0.1 1004234
14:00−3wnw359585 0.0 1004370
17:00−3wnw359489 0.1 1004432
20:00−4wnw2796100 0.2 1005385
4 march, thu
thu423:00−7nw389597 0.4 1007273
02:00−10wnw399568 0.1 1007298
05:00−13wnw379780 0.1 1009165
08:00−14w379798 0.1 1009150
11:00−9wsw489488 0.1 1010342
14:00−6wsw5894100 0.1 1009434
17:00−6sw61192100 0.1 1008637
20:00−4sw71391100 0.2 1006991
5 march, fri
fri523:00−2sw81693100 0.6 1005915
02:00−1sw81589100 0.7 10021148
05:00−1sw81586100 0.8 10011078
08:00−1wsw81689100 0.1 10021008
11:000wsw71390100 0.6 10051079
14:00−1wnw5880100 0.7 1008647
17:00−2wnw3681100 0.7 1011539
20:00−7nnw228899 0.0 101221